CAPE
0 0 0 0 0 0 0 0 0 0 0 0 0 0 0 0 0 0 0 0 0 0 0 0 0 0 0 0 0 0 0 0 0 0 0 0 174 135 60 164 164 243 412 691 1028
0 0 0 0 0 0 0 0 0 0 0 0 0 0 0 0 0 0 0 0 0 0 0 0 0 0 0 0 0 0 0 0 0 0 0 0 65 98 201 282 352 613 815 1005 981
0 0 0 0 0 0 0 0 0 0 0 0 0 0 0 0 0 0 0 0 0 0 0 0 0 0 0 0 0 0 0 0 0 0 0 0 137 131 115 314 402 525 661 803 788
0 0 0 0 0 0 0 0 0 0 0 0 0 0 0 0 0 0 0 0 0 0 0 0 0 0 0 0 0 0 0 0 0 0 0 15 104 152 294 461 417 355 429 409 433
0 0 0 0 0 0 0 0 0 0 0 0 0 0 0 0 0 0 0 0 0 0 0 0 0 0 0 0 0 0 0 0 43 31 56 93 86 88 221 216 236 308 346 303 120
0 0 0 0 0 0 0 0 0 0 0 0 0 0 0 0 0 0 0 0 0 0 0 0 0 0 0 0 0 0 0 15 72 117 205 155 110 121 73 118 126 118 120 86 45
0 0 0 0 0 0 0 0 0 0 0 0 0 0 0 0 0 0 0 0 0 0 0 0 0 0 0 0 0 0 0 0 16 1 209 277 139 67 103 44 58 55 41 4 13
0 0 0 0 0 0 0 0 0 0 0 0 0 0 0 0 0 0 0 0 0 0 0 0 0 0 0 0 0 0 0 0 82 134 352 185 301 287 39 28 30 60 95 46 8
0 0 0 0 0 0 0 0 0 0 0 0 0 0 0 0 0 0 0 0 0 0 0 0 0 0 0 0 0 0 0 0 35 302 314 308 246 124 13 7 4 17 19 14 4
0 0 0 0 0 0 0 0 0 0 0 0 0 0 0 0 0 0 0 0 0 0 0 0 0 0 0 0 0 0 0 16 47 155 172 181 89 67 60 3 2 2 3 1 2
0 0 0 0 0 0 0 0 0 0 0 0 0 0 0 0 0 0 0 0 0 0 0 0 0 0 0 0 0 0 0 0 112 106 98 82 67 9 0 0 0 2 1 2 3
0 0 0 0 0 0 0 0 0 0 0 0 0 0 0 0 0 0 0 0 0 0 0 0 0 0 0 0 0 0 0 0 30 49 54 29 27 0 0 0 0 0 1 1 4
0 0 0 0 0 0 0 0 0 0 0 0 0 0 0 0 0 0 0 0 0 0 0 0 0 0 0 0 0 0 0 0 0 29 26 3 3 2 3 2 1 0 1 1 2
0 0 0 0 0 0 0 0 0 0 0 0 0 0 0 0 0 0 0 0 0 0 0 0 0 0 0 0 0 0 0 0 0 0 0 0 0 2 2 0 2 0 0 0 0
0 0 0 0 0 0 0 0 0 0 0 0 0 0 0 0 0 0 0 0 0 0 0 0 0 0 0 0 0 0 0 0 0 0 0 1 0 4 0 0 2 0 0 0 2
0 0 0 0 0 0 0 0 0 0 0 0 0 0 0 0 0 0 0 0 0 0 0 0 0 0 0 0 0 0 0 0 0 0 0 0 5 3 1 14 0 0 0 0 0
0 0 0 0 0 0 0 0 0 0 0 0 0 0 0 0 0 0 0 0 0 0 0 0 0 0 0 0 0 0 0 0 0 0 0 1 5 35 52 19 1 0 0 0 0
0 0 0 0 0 0 0 0 0 0 0 0 0 0 0 0 0 0 0 0 0 0 0 0 0 0 0 0 0 0 0 0 0 0 0 24 27 60 78 26 1 0 0 0 0
0 0 0 0 0 0 0 0 0 0 0 0 0 0 0 0 0 0 0 0 0 0 0 0 0 0 0 0 0 0 0 0 0 0 0 0 5 41 35 7 0 0 0 0 0
0 0 0 0 0 0 0 0 0 0 0 0 0 0 0 0 0 0 0 0 0 0 0 0 0 0 0 0 0 0 0 0 0 0 0 1 8 46 64 10 0 0 0 0 0
0 0 0 0 0 0 0 0 0 0 0 0 0 0 0 0 0 0 0 0 0 0 0 0 0 0 0 0 0 0 0 0 0 0 0 3 0 20 23 26 2 0 0 0 0
0 0 0 0 0 0 0 0 0 0 0 0 0 0 0 0 0 0 0 0 0 0 0 0 0 0 0 0 0 0 0 0 0 0 0 0 0 0 0 0 0 0 0 1 0
0 0 0 0 0 0 0 0 0 0 0 0 0 0 0 0 0 0 0 0 0 0 0 0 0 0 0 0 0 0 0 0 0 0 0 0 0 0 0 0 2 18 0 0 0
0 0 0 0 0 0 0 0 0 0 0 0 0 0 0 0 0 0 0 0 0 0 0 0 0 0 0 0 0 0 0 0 0 0 0 0 0 0 0 0 7 0 0 0 0
0 0 0 0 0 0 0 0 0 0 0 0 0 0 0 0 0 0 0 0 0 0 0 0 0 0 0 0 0 0 0 0 0 0 0 0 0 0 0 1 6 0 0 0 0
0 0 0 0 0 0 0 0 0 0 0 0 0 0 0 0 0 0 0 0 0 0 0 0 0 0 0 0 0 0 0 0 0 0 0 0 0 0 0 0 0 0 0 0 0
0 0 0 0 0 0 0 0 0 0 0 0 0 0 0 0 0 0 0 0 0 0 0 0 0 0 0 0 0 0 0 0 0 0 0 0 0 0 0 0 0 0 0 0 0
CIN
-0 -0 -0 -0 -0 -0 -0 -0 -0 -0 -0 -0 -0 -0 -0 -0 -0 -0 -0 -0 -0 -0 -0 -0 -0 -0 -0 -0 -0 -0 -0 -0 -0 -0 -0 -0 -164 -321 -411 -289 -379 -390 -344 -279 -179
-0 -0 -0 -0 -0 -0 -0 -0 -0 -0 -0 -0 -0 -0 -0 -0 -0 -0 -0 -0 -0 -0 -0 -0 -0 -0 -0 -0 -0 -0 -0 -0 -0 -0 -0 -0 -259 -312 -294 -266 -349 -324 -258 -182 -153
-0 -0 -0 -0 -0 -0 -0 -0 -0 -0 -0 -0 -0 -0 -0 -0 -0 -0 -0 -0 -0 -0 -0 -0 -0 -0 -0 -0 -0 -0 -0 -0 -0 -0 -0 -0 -341 -461 -296 -286 -338 -311 -265 -191 -152
-0 -0 -0 -0 -0 -0 -0 -0 -0 -0 -0 -0 -0 -0 -0 -0 -0 -0 -0 -0 -0 -0 -0 -0 -0 -0 -0 -0 -0 -0 -0 -0 -0 -0 -9 -363 -526 -439 -384 -270 -272 -313 -275 -217 -169
-0 -0 -0 -0 -0 -0 -0 -0 -0 -0 -0 -0 -0 -0 -0 -0 -0 -0 -0 -0 -0 -0 -0 -0 -0 -0 -0 -0 -0 -0 -0 -0 -515 -497 -596 -549 -511 -455 -327 -328 -316 -273 -229 -216 -274
-0 -0 -0 -0 -0 -0 -0 -0 -0 -0 -0 -0 -0 -0 -0 -0 -0 -0 -0 -0 -0 -0 -0 -0 -0 -0 -0 -0 -0 -0 -0 -435 -458 -442 -474 -425 -434 -432 -353 -322 -311 -276 -260 -263 -309
-0 -0 -0 -0 -0 -0 -0 -0 -0 -0 -0 -0 -0 -0 -0 -0 -0 -0 -0 -0 -0 -0 -0 -0 -0 -0 -0 -0 -0 -0 -0 -0 -482 -37 -329 -355 -375 -336 -278 -346 -319 -306 -289 -339 -351
-0 -0 -0 -0 -0 -0 -0 -0 -0 -0 -0 -0 -0 -0 -0 -0 -0 -0 -0 -0 -0 -0 -0 -0 -0 -0 -0 -0 -0 -0 -0 -0 -380 -336 -320 -286 -137 -143 -318 -316 -330 -267 -211 -236 -316
-0 -0 -0 -0 -0 -0 -0 -0 -0 -0 -0 -0 -0 -0 -0 -0 -0 -0 -0 -0 -0 -0 -0 -0 -0 -0 -0 -0 -0 -0 -0 -0 -238 -345 -282 -258 -151 -171 -317 -363 -191 -300 -248 -224 -231
-0 -0 -0 -0 -0 -0 -0 -0 -0 -0 -0 -0 -0 -0 -0 -0 -0 -0 -0 -0 -0 -0 -0 -0 -0 -0 -0 -0 -0 -0 -0 -295 -256 -304 -368 -287 -270 -258 -217 -212 -1 -0 -1 -0 -0
-0 -0 -0 -0 -0 -0 -0 -0 -0 -0 -0 -0 -0 -0 -0 -0 -0 -0 -0 -0 -0 -0 -0 -0 -0 -0 -0 -0 -0 -0 -0 -0 -305 -301 -301 -255 -244 -290 -1 -0 -0 -0 -2 -0 -1
-0 -0 -0 -0 -0 -0 -0 -0 -0 -0 -0 -0 -0 -0 -0 -0 -0 -0 -0 -0 -0 -0 -0 -0 -0 -0 -0 -0 -0 -0 -0 -0 -324 -315 -310 -256 -203 -0 -0 -0 -0 -0 -0 -0 -2
-0 -0 -0 -0 -0 -0 -0 -0 -0 -0 -0 -0 -0 -0 -0 -0 -0 -0 -0 -0 -0 -0 -0 -0 -0 -0 -0 -0 -0 -0 -0 -0 -0 -294 -264 -121 -0 -0 -0 -98 -0 -0 -0 -3 -11
-0 -0 -0 -0 -0 -0 -0 -0 -0 -0 -0 -0 -0 -0 -0 -0 -0 -0 -0 -0 -0 -0 -0 -0 -0 -0 -0 -0 -0 -0 -0 -0 -0 -4 -0 -0 -0 -5 -0 -0 -139 -0 -0 -0 -24
-0 -0 -0 -0 -0 -0 -0 -0 -0 -0 -0 -0 -0 -0 -0 -0 -0 -0 -0 -0 -0 -0 -0 -0 -0 -0 -0 -0 -0 -0 -0 -0 -0 -0 -0 -85 -0 -1 -0 -2 -99 -8 -0 -0 -37
-0 -0 -0 -0 -0 -0 -0 -0 -0 -0 -0 -0 -0 -0 -0 -0 -0 -0 -0 -0 -0 -0 -0 -0 -0 -0 -0 -0 -0 -0 -0 -0 -0 -0 -0 -0 -93 -26 -0 -32 -12 -4 -0 -0 -0
-0 -0 -0 -0 -0 -0 -0 -0 -0 -0 -0 -0 -0 -0 -0 -0 -0 -0 -0 -0 -0 -0 -0 -0 -0 -0 -0 -0 -0 -0 -0 -0 -0 -0 -0 -37 -80 -85 -64 -120 -85 -0 -0 -0 -0
-0 -0 -0 -0 -0 -0 -0 -0 -0 -0 -0 -0 -0 -0 -0 -0 -0 -0 -0 -0 -0 -0 -0 -0 -0 -0 -0 -0 -0 -0 -0 -0 -0 -0 -0 -131 -69 -101 -136 -176 -59 -0 -0 -0 -0
-0 -0 -0 -0 -0 -0 -0 -0 -0 -0 -0 -0 -0 -0 -0 -0 -0 -0 -0 -0 -0 -0 -0 -0 -0 -0 -0 -0 -0 -0 -0 -0 -0 -0 -0 -0 -88 -153 -183 -136 -0 -0 -0 -0 -0
-0 -0 -0 -0 -0 -0 -0 -0 -0 -0 -0 -0 -0 -0 -0 -0 -0 -0 -0 -0 -0 -0 -0 -0 -0 -0 -0 -0 -0 -0 -0 -0 -0 -0 -0 -29 -59 -55 -85 -100 -18 -0 -0 -0 -0
-0 -0 -0 -0 -0 -0 -0 -0 -0 -0 -0 -0 -0 -0 -0 -0 -0 -0 -0 -0 -0 -0 -0 -0 -0 -0 -0 -0 -0 -0 -0 -0 -0 -0 -0 -9 -0 -90 -85 -43 -26 -0 -0 -0 -0
-0 -0 -0 -0 -0 -0 -0 -0 -0 -0 -0 -0 -0 -0 -0 -0 -0 -0 -0 -0 -0 -0 -0 -0 -0 -0 -0 -0 -0 -0 -0 -0 -0 -0 -0 -0 -0 -0 -0 -0 -0 -0 -0 -73 -0
-0 -0 -0 -0 -0 -0 -0 -0 -0 -0 -0 -0 -0 -0 -0 -0 -0 -0 -0 -0 -0 -0 -0 -0 -0 -0 -0 -0 -0 -0 -0 -0 -0 -0 -0 -0 -0 -0 -0 -0 -32 -30 -0 -0 -0
-0 -0 -0 -0 -0 -0 -0 -0 -0 -0 -0 -0 -0 -0 -0 -0 -0 -0 -0 -0 -0 -0 -0 -0 -0 -0 -0 -0 -0 -0 -0 -0 -0 -0 -0 -0 -3 -0 -0 -0 -29 -0 -0 -0 -0
-0 -0 -0 -0 -0 -0 -0 -0 -0 -0 -0 -0 -0 -0 -0 -0 -0 -0 -0 -0 -0 -0 -0 -0 -0 -0 -0 -0 -0 -0 -0 -0 -0 -0 -0 -0 -0 -0 -0 -40 -100 -0 -0 -0 -0
-0 -0 -0 -0 -0 -0 -0 -0 -0 -0 -0 -0 -0 -0 -0 -0 -0 -0 -0 -0 -0 -0 -0 -0 -0 -0 -0 -0 -0 -0 -0 -0 -0 -0 -0 -0 -0 -0 -0 -0 -0 -0 -0 -0 -0
-0 -0 -0 -0 -0 -0 -0 -0 -0 -0 -0 -0 -0 -0 -0 -0 -0 -0 -0 -0 -0 -0 -0 -0 -0 -0 -0 -0 -0 -0 -0 -0 -0 -0 -0 -0 -0 -0 -0 -0 -0 -0 -0 -0 -0
Wind_Speed
21 22 22 22 22 22 22 22 23 22 22 22 22 22 22 21 21 16 14 9 13 13 14 15 14 15 13 11 11 14 17 18 19 20 23 20 18 18 18 17 17 14 16 19 22
21 21 22 22 22 22 22 22 21 20 20 20 20 20 19 19 16 14 15 14 10 13 14 14 15 15 12 12 12 14 15 14 15 16 21 23 18 17 16 17 18 20 21 21 20
21 21 22 21 22 22 20 19 18 18 18 18 18 17 17 16 13 12 13 16 19 17 16 13 15 14 14 15 13 15 17 17 21 15 17 17 21 20 16 18 16 17 19 18 18
20 21 21 19 18 17 17 17 17 17 17 17 17 17 17 15 11 14 14 13 20 17 12 12 13 12 13 13 15 15 15 21 22 20 16 16 19 23 22 19 19 19 19 18 19
19 19 17 16 16 16 16 17 17 17 16 16 16 16 14 15 16 15 14 11 10 12 14 15 15 14 14 16 15 15 20 20 19 22 21 20 21 20 22 21 21 20 19 18 20
17 16 16 15 15 16 16 17 17 17 16 16 16 15 15 14 16 14 12 11 9 14 15 16 15 16 14 18 16 20 18 19 19 20 19 20 22 17 20 20 20 20 19 19 20
16 15 15 15 15 16 16 17 17 17 17 16 15 14 14 16 15 16 16 17 11 13 18 13 12 17 20 18 20 15 13 16 21 13 13 18 25 20 18 19 20 20 20 21 22
16 16 14 14 14 14 15 16 17 17 17 16 15 14 15 15 15 17 17 18 17 10 13 15 13 13 14 15 17 19 16 15 23 18 20 14 16 18 19 19 20 20 19 20 21
16 15 14 13 13 13 14 15 16 16 16 15 15 14 14 13 12 13 15 8 13 15 17 15 15 15 15 15 16 20 18 18 20 25 17 16 14 17 19 19 21 20 21 20 21
17 15 14 14 13 13 14 15 15 15 14 15 15 14 15 13 13 13 12 12 14 17 17 16 15 16 18 15 16 16 17 20 19 23 23 20 18 18 20 21 20 20 21 21 21
17 16 15 15 14 13 12 12 14 14 16 17 17 18 17 14 13 13 13 14 15 17 16 16 14 16 16 17 16 17 18 18 17 19 22 18 18 18 19 20 19 19 20 21 22
18 17 16 16 15 13 12 13 14 16 17 18 19 20 18 15 12 14 13 16 18 17 17 17 16 15 16 18 19 18 18 19 21 19 19 18 19 19 19 19 17 19 20 20 21
19 19 18 17 14 13 14 15 15 16 15 16 16 17 16 12 14 14 13 17 19 18 19 17 16 16 17 18 20 21 21 17 19 19 17 17 19 18 18 18 18 19 20 20 20
20 19 18 18 15 16 15 17 16 14 12 13 12 12 12 13 14 14 12 15 18 17 18 19 17 18 19 21 21 26 20 17 16 19 21 15 22 16 14 16 16 17 18 18 19
21 19 18 15 15 15 17 19 14 15 12 13 13 13 12 12 14 14 14 16 17 17 14 15 17 19 22 23 21 22 15 16 15 22 21 15 21 18 14 16 16 17 16 17 18
21 19 18 15 16 18 19 18 15 14 12 12 13 12 11 13 15 16 15 15 17 18 18 16 18 20 20 20 23 19 20 20 20 20 25 20 20 20 16 16 15 14 15 16 18
20 18 16 16 16 19 19 15 13 13 15 16 14 12 11 15 16 16 15 17 15 16 17 17 20 20 24 24 23 25 25 27 26 28 26 22 22 22 16 15 13 11 13 15 16
18 15 14 16 20 19 16 12 12 14 13 15 13 13 13 16 16 15 14 16 20 18 16 16 19 22 26 25 26 26 26 27 28 29 26 24 25 24 14 16 15 15 15 15 17
16 13 13 17 17 16 12 12 12 14 16 16 14 14 16 16 13 13 15 16 20 21 18 17 18 18 25 29 27 27 29 22 25 24 25 25 23 19 15 16 15 15 16 17 16
13 12 16 19 16 15 10 10 12 14 16 14 13 15 16 19 15 14 16 19 18 23 17 18 19 20 22 25 29 26 23 27 27 29 31 25 25 25 19 16 14 15 15 17 18
14 13 19 19 15 14 9 12 14 16 13 15 14 15 17 18 18 17 19 18 21 21 23 20 20 22 23 28 29 29 27 26 24 25 27 28 26 25 24 16 14 15 17 18 19
14 15 20 17 14 13 12 15 18 16 16 15 16 17 18 19 18 17 17 18 24 20 20 21 21 27 24 22 25 27 27 26 27 25 23 23 24 23 22 21 18 21 20 20 21
15 16 19 15 13 14 13 12 15 16 17 16 18 19 18 18 18 16 16 21 23 20 21 20 24 26 26 21 25 28 25 23 21 21 23 25 24 22 21 22 22 21 21 21 22
15 16 17 16 14 13 12 14 13 16 15 17 18 17 18 19 19 15 15 19 20 20 22 19 23 23 24 23 21 23 26 24 23 24 24 23 23 24 23 23 22 21 22 23 23
17 15 16 17 17 15 13 14 13 15 16 18 19 19 17 18 18 17 16 17 19 22 22 22 24 21 22 21 20 22 24 27 26 24 25 24 25 23 23 23 21 21 22 23 25
15 15 15 15 17 15 17 16 14 15 18 20 16 18 18 18 18 17 16 18 18 20 22 23 20 19 22 20 20 22 22 23 23 23 23 23 24 20 22 22 23 23 24 26 28
17 15 15 17 17 16 18 17 16 15 18 15 15 17 19 19 16 16 15 16 17 17 19 20 20 20 20 17 21 21 23 22 21 21 22 25 23 19 22 23 23 24 25 27 29
Wind_Direction
297 297 302 309 313 318 320 308 296 294 292 283 282 285 286 283 277 303 302 16 25 13 336 297 341 316 346 25 15 29 31 28 40 26 346 15 3 24 52 55 47 81 68 80 90
293 291 297 309 312 319 312 288 268 264 267 270 271 278 277 279 267 249 215 90 16 22 313 304 317 314 5 25 39 48 33 48 41 28 6 9 14 16 34 31 26 46 63 75 80
289 284 297 316 307 288 263 247 242 244 255 256 263 267 266 268 264 286 260 177 133 95 42 284 336 358 11 21 48 56 53 31 3 42 14 29 14 14 43 15 42 65 73 69 69
289 289 286 261 248 239 231 227 233 238 241 245 258 262 263 248 312 267 278 14 108 81 281 282 298 331 329 304 24 22 54 341 323 0 16 25 35 24 23 34 56 63 60 56 49
294 282 257 240 233 227 224 224 224 226 230 244 255 258 252 250 227 263 294 351 328 353 327 321 336 345 314 300 311 4 348 10 26 33 42 46 28 28 27 39 50 53 48 41 29
290 272 256 242 232 228 223 219 219 222 231 243 246 247 245 259 253 282 313 321 125 69 8 12 359 9 355 317 344 330 23 37 27 37 42 38 23 29 19 38 38 39 37 27 27
289 272 265 248 240 228 220 218 222 229 235 237 238 249 235 192 242 258 261 242 4 40 311 55 45 334 294 314 343 23 55 29 343 29 46 47 14 32 27 28 30 29 31 28 28
286 283 264 252 241 226 222 225 227 226 228 228 240 269 207 212 232 240 241 238 198 178 85 333 59 9 24 30 27 24 24 20 345 7 1 23 19 24 29 20 17 21 21 19 23
296 285 273 262 248 235 229 225 212 201 216 244 262 280 225 249 270 261 110 331 294 291 291 13 37 23 14 33 31 9 27 17 11 353 22 19 28 21 27 22 16 17 20 25 29
300 289 276 273 261 250 243 210 225 230 252 241 262 264 216 252 263 285 312 340 338 292 320 23 28 36 12 36 25 24 18 7 9 7 30 30 24 25 22 19 13 16 19 27 27
301 289 281 275 263 257 242 254 272 278 273 216 221 222 217 244 245 10 14 7 10 21 25 356 16 23 30 26 30 21 21 18 23 4 7 16 16 15 15 18 22 24 25 21 17
294 285 283 272 249 239 255 304 311 261 250 237 210 207 212 257 282 334 34 48 17 9 37 20 19 30 43 31 32 30 23 13 3 10 11 14 10 14 16 21 22 19 14 12 11
297 287 278 270 275 303 275 296 293 277 274 249 254 244 258 18 291 316 42 24 25 29 26 38 21 52 36 24 15 9 4 7 3 7 23 25 6 7 14 15 12 8 6 5 7
298 286 274 266 285 277 283 290 272 40 276 254 271 285 323 304 284 306 353 359 26 48 36 23 27 29 20 9 4 352 11 25 31 3 352 5 350 359 8 4 8 5 4 5 3
294 280 269 278 279 287 275 285 314 303 327 273 269 288 305 338 325 331 340 16 29 34 44 37 19 3 1 0 2 4 31 20 13 357 0 1 352 355 359 352 355 356 2 1 360
287 269 263 281 275 263 274 285 292 277 321 294 278 306 322 324 0 349 6 3 18 28 24 24 15 7 7 11 5 16 8 2 360 355 344 349 345 345 350 351 355 3 6 2 2
285 264 269 280 278 273 283 299 286 296 287 295 303 338 358 335 345 353 5 0 23 28 22 24 6 12 5 358 2 355 353 345 341 338 338 348 347 347 352 357 2 4 5 6 4
282 279 282 274 261 275 304 317 305 290 316 323 337 345 349 331 337 347 12 7 356 17 22 15 358 359 359 3 357 357 356 347 341 341 342 349 343 348 3 3 4 5 11 7 359
280 293 310 279 286 309 323 316 318 305 312 333 359 355 338 347 5 359 357 353 348 4 10 11 7 11 4 2 3 355 350 3 352 350 344 346 350 352 356 357 2 358 6 7 10
312 308 305 290 307 324 336 330 326 313 307 340 351 348 352 335 359 1 351 343 352 352 16 7 359 4 360 1 3 3 5 349 350 343 339 346 346 346 356 1 6 1 7 6 5
316 320 300 298 321 329 338 313 316 320 343 337 348 346 348 346 352 353 346 352 341 349 360 0 360 354 355 354 352 353 354 355 354 349 343 344 348 360 2 17 14 11 7 4 4
312 317 301 310 321 329 321 302 299 314 335 339 347 348 349 347 347 351 353 351 337 353 356 1 357 347 352 359 7 4 357 356 352 354 357 356 357 8 8 11 15 6 8 7 7
313 307 317 327 326 324 324 322 320 316 325 336 339 344 349 347 345 352 354 350 351 358 358 2 355 349 347 355 357 357 7 11 12 11 3 358 1 13 14 12 7 8 9 9 7
320 318 322 345 343 337 327 316 321 325 337 347 348 355 347 342 345 356 0 359 6 12 10 11 0 357 352 356 4 8 10 16 17 12 10 10 7 8 9 9 8 13 11 9 9
316 321 325 317 318 325 327 327 325 325 338 336 342 346 352 349 350 354 357 359 3 3 7 4 358 6 10 17 22 21 18 16 18 20 12 12 8 11 12 8 13 15 13 9 6
320 321 325 326 317 322 318 320 328 330 323 326 345 347 348 345 347 349 354 355 359 2 5 9 10 18 10 24 30 23 21 21 21 21 20 15 10 18 19 21 17 14 12 6 3
331 330 325 318 321 322 314 316 322 333 337 345 351 349 348 350 359 357 0 2 4 8 7 11 17 13 12 31 12 11 20 27 26 25 19 12 14 22 15 14 15 14 11 7 5